星链-35842(STARLINK-35842)

导读

STARLINK-35842是美国星链(Starlink)星座的一颗卫星,于2025年12月14日发射。星链项目由SpaceX主导,旨在构建全球卫星互联网星座,为全球范围内用户提供高速低延迟的宽带网络服务,该卫星加入星座后进一步提升了星链系统的覆盖范围与服务能力。

基本信息
目录编号:
67087
目录名称:
STARLINK-35842
国际标识:
2025-298N
轨道中心:
EARTH
卫星名称:
星链-35842
卫星全名:
星链-35842(STARLINK-35842)
卫星状态:
在轨 (已飞行181 天)
发射日期:
2025-12-14 UTC
国别 :
美国 (US)
星等 :
--
轨道信息
数据来源 国际轨道数据 AOE轨道数据
星历时间 2026-06-12T14:07:56+0800
1天前
查看轨道信息
2026-06-10T12:00:00+0800
3天前
查看轨道信息
半长轴 6950.173km 6950.199km
偏心率 0.0003947 0.0003846
轨道倾角 70.001° 70.004°
近地点辐角 264.859° 262.634°
升交点赤经 135.989° 141.259°
平近点角 95.212° 353.427°
近地点 569.292km 569.388km
远地点 574.78km 574.736km
周期 96.107分钟 96.107分钟
每日圈数 14.983365 14.983282
详细信息
固有亮度:
5
最大亮度:
2.5
卫星平台:
Starlink V1.0
覆盖范围:
全球
运营商:
太空探索技术公司
运营商所在国:
美国
制造商(研发单位):
太空探索技术公司
制造商所在国:
美国
使用方式:
暂无
卫星简介
Starlink 计划是 SpaceX 推出的全球卫星互联网项目,通过发射低轨道卫星,为全球尤其是偏远地区提供高速、低延迟的互联网服务。自 2019 年起,Starlink 已部署数千颗卫星,旨在缩小全球数字鸿沟,推动互联网普及。该项目还为军事、航空等行业提供通信支持,带来广泛经济效益。
2D轨道图
3D轨道图
轨道高度分析图
轨道倾角分析图
轨道综合分析图
查看轨道综合分析图